Погода в Городке

Беларусь     55°27′44″N   29°58′58″E
темп.,
°C
ветер,
м/с
пор.,
м/с
влажн.,
%
обл.,
%
осадки,
мм/ч
давл.,
гПа
погр.,
м
25 октября, пн
пн2500:00−1зсз22885 0.0 103029
03:00−1зюз228489 0.0 103042
06:00−1юз36929 0.0 1030130
09:000юз399369 0.0 1030267
12:00+5юз59715 0.0 1029587
15:00+7юз59635 0.0 1027876
18:00+4ююз4117535 0.0 1027354
21:00+3юз51479100 0.0 1026431
26 октября, вт
вт2600:00+2юз5147997 0.0 1025443
03:00+2ююз51480100 0.0 1024395
06:00+2ююз51377100 0.0 1022368
09:00+2ююз51374100 0.0 1021381
12:00+6ююз51261100 0.0 1020490
15:00+7ююз51258100 0.0 1018630
18:00+5ююз51366100 0.0 1018457
21:00+4юз51372100 0.0 1018422
27 октября, ср
ср2700:00+3юз41278100 0.0 1017355
03:00+4юз41084100 0.0 1015335
06:00+4юз41186100 0.1 1014401
09:00+5зюз41196100 0.9 1015475
12:00+7з5119180 0.0 1015724
15:00+8з61171100 0.1 10161256
18:00+6зюз41181100 0.0 1017518
21:00+7зюз51187100 0.0 1016525
28 октября, чт
чт2800:00+6ююз51293100 0.4 1015479
03:00+8юз51497100 1.6 1013753
06:00+10з51395100 0.4 1012781
09:00+10з51297100 0.8 1013727
12:00+11з51191100 0.2 1015771
15:00+12зсз6107896 0.3 10161138
18:00+9зсз389095 0.1 1019213
21:00+8ссз268638 0.1 1021170
29 октября, пт
пт2900:00+5ссз22957 0.0 102324
03:00+7сз0089100 0.0 102415
06:00+6ююз2291100 0.0 102531
09:00+7ю2589100 0.0 1026162
12:00+9ююз3690100 0.0 1026265
15:00+12юз3684100 0.0 1026678
18:00+11ююз359186 0.0 1027128
21:00+11ююз378985 0.0 1027189